Regional Weather Roundup
Issued by NWS New Orleans/Baton Rouge, LA

Home | Current Version | Previous Version | Text Only | Print | Product List | Glossary On
Versions: 1 2 3 4 5 6 7 8 9 10 11 12 13 14 15 16 17 18 19 20 21 22 23 24 25 26 27 28 29 30 31 32 33 34 35 36 37 38 39 40 41 42 43 44 45 46 47 48 49 50
277
ASUS44 KLIX 250305
RWRLIX
NEW ORLEANS REGIONAL WEATHER ROUNDUP
NATIONAL WEATHER SERVICE NEW ORLEANS LA
900 PM CST SAT JAN 24 2015

NOTE: "FAIR" INDICATES FEW OR NO CLOUDS BELOW 12,000 FEET WITH NO
      SIGNIFICANT WEATHER AND/OR OBSTRUCTIONS TO VISIBILITY.
      SKY/WX - SKY CONDITION AND SIGNIFICANT WEATHER.
      TMP - AIR TEMPERATURE.     DP    - DEWPOINT TEMPERATURE.
      RH  - RELATIVE HUMIDITY.   PRES  - PRESSURE.
      HI  - HEAT INDEX.          WCI   - WIND CHILL INDEX.

*  THESE STATIONS ARE NOT NWS OR FAA STATIONS AND ARE NOT UNDER
   NWS QUALITY CONTROL.

LAZ038-040-048-061>063-065>067-069-250400-
SOUTHEAST LOUISIANA

CITY           SKY/WX    TMP DP  RH WIND       PRES   REMARKS
N.O. AUDUBON   NOT AVBL
N.O. INTL ARPT PTCLDY    47  36  65 SW9       30.09S
N.O. LAKEFRONT CLEAR     50  36  58 SW10      30.09S
N.O. DOWNTOWN*   N/A     48  36  61 S5        30.10S
SLIDELL        CLEAR     40  36  86 CALM      30.07F
BATON ROUGE    CLEAR     48  36  63 SW9       30.08R
BOOTHVILLE     CLEAR     50  43  77 W7        30.11S
BELLE CHASSE   PTCLDY    48  39  71 SW8       30.10S
BOGALUSA*        N/A     40  36  87 CALM      30.08F
GALLIANO*      CLEAR     49  43  79 MISG      30.12S
NEW ROADS*       N/A     46  38  72 SW6       30.08S
GONZALES*        N/A     47  40  75 CALM      30.08F
HAMMOND*       CLEAR     41  36  81 CALM      30.08F
HOUMA*         CLEAR     45  41  85 SW6       30.11F
PORT FOURCHON* CLEAR     52  41  66 W13       30.15F

$$

MSZ070-080>082-250400-
SOUTHERN MISSISSIPPI

CITY           SKY/WX    TMP DP  RH WIND       PRES   REMARKS
MCCOMB         CLEAR     37  33  85 CALM      30.05F
GULFPORT       CLEAR     41  36  82 CALM      30.06F
BILOXI         CLEAR     45  37  73 W5        30.06F
PASCAGOULA     CLEAR     39  38  96 CALM      30.07F
STENNIS ARPT*  CLEAR     37  36  93 CALM      30.07

$$

COASTAL OBSERVATIONS
LAKE AND NEARSHORE STATIONS

STATION/POSITION TIME  TEMP    WIND        PRES    WAVE
                       AIR SEA DIR/SP/G            HT/PER
                 (UTC) (F)     (DEG/KT/KT) (MB)    (FT/S)
PASCAGOULA       0300   50     270/  7/  9 1017.7
WAVELAND YACHT   0300   49     250/  5/  6 1017.3
GRAND ISLE       0300   51 54  270/ 11/ 15 1020.1
SOUTHWEST PASS   0300   53 46  260/ 14/ 16 1020.0
NEW CANAL        0300   50 52  220/  5/  8 1019.0
SHELL BEACH      0300   48 53  220/  8/  9 1018.7

OFFSHORE STATIONS

STATION/POSITION TIME  TEMP    WIND        PRES    WAVE
                       AIR SEA DIR/SP/G            HT/PER
                 (UTC) (F)     (DEG/KT/KT) (MB)    (FT/S)
64 S DAUPHIN ISL 0233   56 70  290/ 14/ 16 1019.1    4/ 8

$$




USA.gov is the U.S. government's official web portal to all federal, state and local government web resources and services.